Weather History for KBPC - February, 2012

Change the Weather History Date:

Monday, February 6, 2012

  Actual Average (KBGD) Record (KBGD)
Temperature  
Mean Temperature 37 °F 41 °F  
Max Temperature 51 °F 54 °F 82 °F (2009)
Min Temperature 23 °F 28 °F -3 °F (1982)
Degree Days  
Heating Degree Days 28 24  
Month to date heating degree days 147  
Since 1 July heating degree days 2499  
Cooling Degree Days 0 0  
Month to date cooling degree days 0  
Year to date cooling degree days 0  
Moisture  
Dew Point 23 °F    
Average Humidity 63    
Maximum Humidity 93    
Minimum Humidity 33    
Precipitation  
Precipitation 0.00 in 0.03 in 0.51 in (2005)
Month to date precipitation 0.15  
Year to date precipitation 0.74  
Snow  
Snow 0.00 in - 3.00 in (2002)
Month to date snowfall  
Since 1 July snowfall  
Snow Depth -    
Sea Level Pressure  
Sea Level Pressure 30.21 in    
Wind  
Wind Speed 6 mph (SSW)    
Max Wind Speed 18 mph    
Max Gust Speed 24 mph    
Visibility 10 miles    
Events      
T = Trace of Precipitation, MM = Missing Value Source: NWS Daily Summary

Daily Weather History Graph

Daily Weather History Graph

Search for Another Location

Airport or City:

Trip Planner

Search our weather history database for the weather conditions in past years. The results will help you decide how hot, cold, wet, or windy it might be!

Date:

Astronomy

Feb. 06, 2012 Rise Set
Actual Time 7:40 AM CST 6:16 PM CST
Civil Twilight 7:14 AM CST 6:42 PM CST
Nautical Twilight 6:43 AM CST 7:13 PM CST
Astronomical Twilight 6:13 AM CST 7:43 PM CST
Moon 5:22 PM CST (2/6) 6:32 AM CST (2/6)
Length of Visible Light 11h 28m
Length of Day
10h 35m
Waxing Gibbous, 98% of the Moon is Illuminated
Feb 6
Waxing Gibbous
Feb 7
Full
Feb 14
Last Quarter
Feb 21
New
Feb 29
First Quarter

Hourly Weather History & Observations

Time (CST) Temp. Windchill Dew Point Humidity Pressure Visibility Wind Dir Wind Speed Gust Speed Precip Events Conditions
12:15 AM 26.6 °F 21.2 °F 23.0 °F 86% 30.32 in 10.0 mi WSW 4.6 mph - N/A   Clear
12:35 AM 26.6 °F 20.0 °F 21.2 °F 80% 30.32 in 10.0 mi SSW 5.8 mph - N/A   Clear
12:55 AM 26.6 °F 21.2 °F 21.2 °F 80% 30.32 in 10.0 mi SSW 4.6 mph - N/A   Clear
1:15 AM 28.4 °F 23.3 °F 21.2 °F 74% 30.31 in 10.0 mi SSW 4.6 mph - N/A   Clear
1:35 AM 28.4 °F - 21.2 °F 74% 30.31 in 10.0 mi Calm Calm - N/A   Clear
2:15 AM 24.8 °F - 21.2 °F 86% 30.31 in 10.0 mi Calm Calm - N/A   Clear
2:35 AM 24.8 °F 19.1 °F 21.2 °F 86% 30.31 in 10.0 mi WSW 4.6 mph - N/A   Clear
3:15 AM 23.0 °F 15.8 °F 21.2 °F 93% 30.30 in 10.0 mi SW 5.8 mph - N/A   Clear
3:35 AM 24.8 °F 20.5 °F 21.2 °F 86% 30.30 in 10.0 mi SSW 3.5 mph - N/A   Clear
3:55 AM 26.6 °F 22.6 °F 21.2 °F 80% 30.30 in 10.0 mi SW 3.5 mph - N/A   Clear
4:15 AM 23.0 °F 18.4 °F 21.2 °F 93% 30.30 in 10.0 mi SW 3.5 mph - N/A   Clear
4:35 AM 24.8 °F 19.1 °F 21.2 °F 86% 30.29 in 10.0 mi WSW 4.6 mph - N/A   Clear
4:55 AM 23.0 °F 17.0 °F 19.4 °F 86% 30.29 in 10.0 mi WSW 4.6 mph - N/A   Clear
5:15 AM 23.0 °F 13.9 °F 19.4 °F 86% 30.29 in 10.0 mi WSW 8.1 mph - N/A   Clear
5:35 AM 24.8 °F 17.9 °F 23.0 °F 93% 30.29 in 10.0 mi SW 5.8 mph - N/A   Clear
5:55 AM 26.6 °F 22.6 °F 23.0 °F 86% 30.29 in 10.0 mi SW 3.5 mph - N/A   Clear
6:15 AM 26.6 °F - 23.0 °F 86% 30.29 in 10.0 mi Calm Calm - N/A   Clear
6:35 AM 26.6 °F - 23.0 °F 86% 30.28 in 10.0 mi Calm Calm - N/A   Clear
6:55 AM 26.6 °F - 23.0 °F 86% 30.28 in 10.0 mi Calm Calm - N/A   Clear
7:15 AM 28.4 °F - 23.0 °F 80% 30.27 in 10.0 mi Calm Calm - N/A   Clear
7:35 AM 28.4 °F - 23.0 °F 80% 30.27 in 10.0 mi Calm Calm - N/A   Clear
8:15 AM 26.6 °F - 23.0 °F 86% 30.27 in 10.0 mi Calm Calm - N/A   Clear
8:35 AM 26.6 °F - 23.0 °F 86% 30.27 in 10.0 mi Calm Calm - N/A   Clear
8:55 AM 30.2 °F - 26.6 °F 86% 30.27 in 10.0 mi Calm Calm - N/A   Clear
9:15 AM 32.0 °F 25.6 °F 28.4 °F 87% 30.27 in 10.0 mi SSW 6.9 mph - N/A   Clear
9:35 AM 32.0 °F 25.6 °F 26.6 °F 80% 30.27 in 10.0 mi SW 6.9 mph - N/A   Clear
9:55 AM 33.8 °F 26.4 °F 28.4 °F 81% 30.27 in 10.0 mi SW 9.2 mph - N/A   Clear
10:15 AM 35.6 °F 29.2 °F 28.4 °F 75% 30.26 in 10.0 mi SW 8.1 mph - N/A   Clear
10:35 AM 37.4 °F 32.1 °F 26.6 °F 65% 30.26 in 10.0 mi SW 6.9 mph - N/A   Clear
10:55 AM 41.0 °F 34.3 °F 26.6 °F 57% 30.25 in 10.0 mi SW 11.5 mph - N/A   Clear
11:15 AM 42.8 °F 37.0 °F 26.6 °F 53% 30.24 in 10.0 mi SW 10.4 mph 17.3 mph N/A   Clear
11:55 AM 46.4 °F 39.8 °F 23.0 °F 40% 30.22 in 10.0 mi SSW 16.1 mph 20.7 mph N/A   Clear
12:15 PM 48.2 °F - 23.0 °F 37% 30.21 in 10.0 mi SSW 13.8 mph 19.6 mph N/A   Clear
12:35 PM 48.2 °F - 23.0 °F 37% 30.20 in 10.0 mi SSW 11.5 mph - N/A   Clear
12:55 PM 50.0 °F - 23.0 °F 35% 30.19 in 10.0 mi SSW 12.7 mph 18.4 mph N/A   Clear
1:15 PM 48.2 °F - 23.0 °F 37% 30.17 in 10.0 mi SSW 10.4 mph 18.4 mph N/A   Clear
1:35 PM 50.0 °F - 23.0 °F 35% 30.16 in 10.0 mi SSW 17.3 mph 23.0 mph N/A   Clear
1:55 PM 51.8 °F - 23.0 °F 33% 30.15 in 10.0 mi SSW 15.0 mph 20.7 mph N/A   Clear
2:15 PM 51.8 °F - 23.0 °F 33% 30.13 in 10.0 mi SSW 13.8 mph 21.9 mph N/A   Clear
2:35 PM 50.0 °F - 23.0 °F 35% 30.12 in 10.0 mi SSW 11.5 mph 19.6 mph N/A   Clear
3:15 PM 50.0 °F - 23.0 °F 35% 30.11 in 10.0 mi South 16.1 mph 24.2 mph N/A   Scattered Clouds
3:35 PM 51.8 °F - 23.0 °F 33% 30.10 in 10.0 mi South 16.1 mph 20.7 mph N/A   Scattered Clouds
3:55 PM 51.8 °F - 23.0 °F 33% 30.10 in 10.0 mi South 15.0 mph 23.0 mph N/A   Scattered Clouds
4:15 PM 51.8 °F - 23.0 °F 33% 30.09 in 10.0 mi South 15.0 mph 21.9 mph N/A   Scattered Clouds
4:35 PM 50.0 °F - 23.0 °F 35% 30.09 in 10.0 mi South 18.4 mph 23.0 mph N/A   Scattered Clouds
4:55 PM 50.0 °F - 23.0 °F 35% 30.09 in 10.0 mi South 16.1 mph 21.9 mph N/A   Scattered Clouds
5:15 PM 50.0 °F - 23.0 °F 35% 30.08 in 10.0 mi South 13.8 mph - N/A   Clear
5:35 PM 48.2 °F - 23.0 °F 37% 30.09 in 10.0 mi South 12.7 mph 18.4 mph N/A   Clear
6:15 PM 46.4 °F 41.5 °F 23.0 °F 40% 30.08 in 10.0 mi SSE 10.4 mph 16.1 mph N/A   Clear
6:35 PM 44.6 °F 40.2 °F 24.8 °F 46% 30.08 in 10.0 mi SSE 8.1 mph - N/A   Clear
6:55 PM 42.8 °F 37.5 °F 24.8 °F 49% 30.09 in 10.0 mi SSE 9.2 mph - N/A   Clear
7:15 PM 42.8 °F 37.5 °F 26.6 °F 53% 30.09 in 10.0 mi SSE 9.2 mph - N/A   Clear
7:35 PM 42.8 °F 37.0 °F 26.6 °F 53% 30.09 in 10.0 mi SSE 10.4 mph - N/A   Clear
7:55 PM 41.0 °F 34.7 °F 26.6 °F 57% 30.09 in 10.0 mi SSE 10.4 mph - N/A   Clear
8:15 PM 42.8 °F 37.0 °F 26.6 °F 53% 30.09 in 10.0 mi SSE 10.4 mph - N/A   Mostly Cloudy
8:55 PM 42.8 °F 35.8 °F 24.8 °F 49% 30.09 in 10.0 mi SSE 13.8 mph - N/A   Mostly Cloudy
9:15 PM 42.8 °F 35.1 °F 23.0 °F 46% 30.09 in 10.0 mi SSE 16.1 mph - N/A   Mostly Cloudy
9:35 PM 41.0 °F 32.8 °F 23.0 °F 49% 30.10 in 10.0 mi SSE 16.1 mph 23.0 mph N/A   Scattered Clouds
9:55 PM 41.0 °F 32.8 °F 23.0 °F 49% 30.10 in 10.0 mi South 16.1 mph - N/A   Scattered Clouds
10:15 PM 39.2 °F 31.2 °F 24.8 °F 56% 30.10 in 10.0 mi South 13.8 mph - N/A   Scattered Clouds
10:35 PM 39.2 °F 30.8 °F 23.0 °F 52% 30.10 in 10.0 mi South 15.0 mph - N/A   Clear
10:55 PM 39.2 °F 30.8 °F 24.8 °F 56% 30.11 in 10.0 mi South 15.0 mph 19.6 mph N/A   Clear
11:15 PM 37.4 °F 29.3 °F 24.8 °F 60% 30.11 in 10.0 mi SSE 12.7 mph - N/A   Clear
11:35 PM 37.4 °F 29.3 °F 24.8 °F 60% 30.12 in 10.0 mi SSE 12.7 mph - N/A   Clear
11:55 PM 37.4 °F 30.3 °F 24.8 °F 60% 30.12 in 10.0 mi South 10.4 mph - N/A   Clear